Location: Unspecified
(0.0000°N, 0.0000°E)
Time: 16:44:54
(UTC+00:00)

Vanguard 1 - Pass Details

Date: 19 December 2025
Orbit: 651 x 3820 km, 34.2° (Epoch: 14 January)

Event Time Altitude Azimuth Distance (km) Brightness Sun altitude
Rises 02:03:56 0° 222° (SW) 6,406 14.2 -51.3°
Reaches altitude 10° 02:09:35 10° 213° (SSW) 4,808 13.6 -50.2°
Maximum altitude 02:19:46 31° 156° (SSE) 2,375 12.2 -48.2°
Drops below altitude 10° 02:25:58 10° 96° (E) 2,890 12.9 -46.9°
Sets 02:28:26 0° 84° (E) 3,576 13.4 -46.4°
